When you browse on this site, cookies collect data to enhance your experience and personalize the content and advertising you see.
Visit our Privacy Policy to learn more. By continuing to use the site, you agree to this use of cookies and data.
  • In Hungary
  • List of Countries
  • For 7 days
  • Water Temperature
  • Satellite Maps
  • Weather Map
  • News
  • Weather Widgets
  • user-avatar
    Login

    Hourly Weather Duliby

    Today, 20 July, Saturday

    Time Temperature Precipitation Wind Pressure Humidity
    00:00 +16°C° 0 mm 1 mps 737 mmHg 85%
    01:00 +15°C° 0 mm 1 mps 737 mmHg 86%
    02:00 +15°C° 0 mm 2 mps 737 mmHg 85%
    03:00 +15°C° 0.1 mm 1 mps 737 mmHg 85%
    04:00 +15°C° 0.1 mm 1 mps 737 mmHg 86%
    05:00 +15°C° 0.1 mm 1 mps 737 mmHg 87%
    06:00 +16°C° 0 mm 1 mps 738 mmHg 83%
    07:00 +19°C° 0 mm 1 mps 738 mmHg 80%
    08:00 +21°C° 0 mm 1 mps 738 mmHg 76%
    09:00 +21°C° 0.3 mm 2 mps 738 mmHg 71%
    10:00 +24°C° 0.3 mm 2 mps 738 mmHg 67%
    11:00 +25°C° 0.3 mm 3 mps 738 mmHg 62%
    12:00 +26°C° 1 mm 3 mps 738 mmHg 62%
    13:00 +26°C° 1 mm 3 mps 738 mmHg 61%
    14:00 +27°C° 1 mm 3 mps 738 mmHg 60%
    15:00 +27°C° 2 mm 3 mps 738 mmHg 62%
    16:00 +26°C° 2 mm 3 mps 738 mmHg 64%
    17:00 +26°C° 2 mm 3 mps 738 mmHg 66%
    18:00 +25°C° 0.5 mm 2 mps 738 mmHg 71%
    19:00 +23°C° 0.5 mm 1 mps 738 mmHg 76%
    20:00 +21°C° 0.5 mm 1 mps 737 mmHg 81%
    21:00 +21°C° 0 mm 1 mps 737 mmHg 83%
    22:00 +20°C° 0 mm 1 mps 738 mmHg 85%
    23:00 +19°C° 0 mm 1 mps 738 mmHg 86%

    Tomorrow, 21 July, Sunday

    Time Temperature Precipitation Wind Pressure Humidity
    00:00 +18°C° 0 mm 1 mps 738 mmHg 87%
    01:00 +18°C° 0 mm 1 mps 738 mmHg 89%
    02:00 +16°C° 0 mm 1 mps 738 mmHg 90%
    03:00 +16°C° 0 mm 1 mps 738 mmHg 90%
    04:00 +16°C° 0 mm 1 mps 738 mmHg 90%
    05:00 +16°C° 0 mm 1 mps 738 mmHg 90%
    06:00 +19°C° 0 mm 1 mps 738 mmHg 86%
    07:00 +21°C° 0 mm 1 mps 738 mmHg 81%
    08:00 +22°C° 0 mm 1 mps 738 mmHg 77%
    09:00 +24°C° 0 mm 1 mps 738 mmHg 72%
    10:00 +26°C° 0 mm 1 mps 738 mmHg 66%
    11:00 +27°C° 0 mm 1 mps 738 mmHg 60%
    12:00 +28°C° 0.1 mm 2 mps 738 mmHg 58%
    13:00 +29°C° 0.1 mm 2 mps 738 mmHg 56%
    14:00 +29°C° 0.1 mm 2 mps 738 mmHg 54%
    15:00 +29°C° 0.5 mm 3 mps 738 mmHg 58%
    16:00 +29°C° 0.5 mm 3 mps 738 mmHg 63%
    17:00 +28°C° 0.5 mm 3 mps 737 mmHg 67%
    18:00 +27°C° 0.8 mm 3 mps 737 mmHg 72%
    19:00 +25°C° 0.8 mm 3 mps 737 mmHg 77%
    20:00 +22°C° 0.8 mm 3 mps 738 mmHg 82%
    21:00 +21°C° 1.2 mm 3 mps 738 mmHg 86%
    22:00 +20°C° 1.2 mm 2 mps 738 mmHg 90%
    23:00 +19°C° 1.2 mm 1 mps 738 mmHg 94%

    Day after tomorrow, 22 July, Monday

    Time Temperature Precipitation Wind Pressure Humidity
    00:00 +18°C° 0.1 mm 2 mps 738 mmHg 95%
    01:00 +17°C° 0.1 mm 2 mps 738 mmHg 95%
    02:00 +17°C° 0.1 mm 2 mps 738 mmHg 95%
    03:00 +17°C° 0 mm 3 mps 738 mmHg 95%
    04:00 +17°C° 0 mm 3 mps 738 mmHg 95%
    05:00 +17°C° 0 mm 3 mps 738 mmHg 95%
    06:00 +18°C° 0 mm 4 mps 738 mmHg 94%
    07:00 +19°C° 0 mm 4 mps 738 mmHg 92%
    08:00 +19°C° 0 mm 5 mps 739 mmHg 90%
    09:00 +20°C° 0.5 mm 5 mps 739 mmHg 86%
    10:00 +21°C° 0.5 mm 5 mps 739 mmHg 82%
    11:00 +22°C° 0.5 mm 5 mps 739 mmHg 77%
    12:00 +22°C° 0.8 mm 5 mps 739 mmHg 77%
    13:00 +22°C° 0.8 mm 5 mps 739 mmHg 77%
    14:00 +22°C° 0.8 mm 5 mps 739 mmHg 77%
    15:00 +22°C° 0.6 mm 5 mps 739 mmHg 78%
    16:00 +22°C° 0.6 mm 5 mps 739 mmHg 78%
    17:00 +21°C° 0.6 mm 5 mps 739 mmHg 78%
    18:00 +20°C° 0.2 mm 4 mps 739 mmHg 81%
    19:00 +19°C° 0.2 mm 3 mps 739 mmHg 84%
    20:00 +18°C° 0.2 mm 2 mps 739 mmHg 86%
    21:00 +17°C° 0 mm 3 mps 739 mmHg 89%
    22:00 +16°C° 0 mm 3 mps 739 mmHg 91%
    23:00 +16°C° 0 mm 3 mps 740 mmHg 93%

    23 July, Tuesday

    Time Temperature Precipitation Wind Pressure Humidity
    00:00 +14°C° 0 mm 3 mps 739 mmHg 93%
    01:00 +15°C° 0 mm 2 mps 739 mmHg 93%
    02:00 +15°C° 0 mm 2 mps 739 mmHg 93%
    03:00 +14°C° 0 mm 2 mps 739 mmHg 94%
    04:00 +14°C° 0 mm 2 mps 739 mmHg 95%
    05:00 +13°C° 0 mm 2 mps 739 mmHg 95%
    06:00 +13°C° 0.1 mm 3 mps 739 mmHg 92%
    07:00 +16°C° 0.1 mm 3 mps 739 mmHg 89%
    08:00 +17°C° 0.1 mm 4 mps 739 mmHg 86%
    09:00 +17°C° 0.1 mm 5 mps 739 mmHg 80%
    10:00 +19°C° 0.1 mm 5 mps 738 mmHg 74%
    11:00 +20°C° 0.1 mm 6 mps 738 mmHg 68%
    12:00 +21°C° 0 mm 6 mps 738 mmHg 65%
    13:00 +22°C° 0 mm 6 mps 738 mmHg 62%
    14:00 +22°C° 0 mm 6 mps 737 mmHg 59%
    15:00 +22°C° 0.2 mm 6 mps 737 mmHg 64%
    16:00 +21°C° 0.2 mm 6 mps 737 mmHg 68%
    17:00 +21°C° 0.2 mm 5 mps 737 mmHg 72%
    18:00 +20°C° 0.1 mm 5 mps 737 mmHg 77%
    19:00 +19°C° 0.1 mm 5 mps 736 mmHg 82%
    20:00 +18°C° 0.1 mm 4 mps 736 mmHg 87%
    21:00 +17°C° 0.1 mm 5 mps 736 mmHg 89%
    22:00 +16°C° 0.1 mm 5 mps 736 mmHg 90%
    23:00 +16°C° 0.1 mm 5 mps 736 mmHg 92%

    24 July, Wednesday

    Time Temperature Precipitation Wind Pressure Humidity
    00:00 +16°C° 0.1 mm 5 mps 736 mmHg 93%
    01:00 +16°C° 0.1 mm 5 mps 736 mmHg 94%
    02:00 +16°C° 0.1 mm 5 mps 736 mmHg 95%
    03:00 +16°C° 0 mm 5 mps 736 mmHg 95%
    04:00 +15°C° 0 mm 5 mps 736 mmHg 96%
    05:00 +15°C° 0 mm 5 mps 736 mmHg 97%
    06:00 +16°C° 0 mm 5 mps 736 mmHg 94%
    07:00 +17°C° 0 mm 5 mps 737 mmHg 91%
    08:00 +19°C° 0 mm 5 mps 737 mmHg 88%
    09:00 +20°C° 0.1 mm 5 mps 737 mmHg 82%
    10:00 +21°C° 0.1 mm 6 mps 737 mmHg 76%
    11:00 +23°C° 0.1 mm 6 mps 737 mmHg 70%
    12:00 +23°C° 0.2 mm 6 mps 737 mmHg 68%
    13:00 +24°C° 0.2 mm 6 mps 737 mmHg 67%
    14:00 +24°C° 0.2 mm 6 mps 737 mmHg 65%
    15:00 +23°C° 0.3 mm 5 mps 737 mmHg 69%
    16:00 +23°C° 0.3 mm 5 mps 737 mmHg 73%
    17:00 +22°C° 0.3 mm 4 mps 737 mmHg 77%
    18:00 +21°C° 0.1 mm 4 mps 737 mmHg 80%
    19:00 +20°C° 0.1 mm 3 mps 737 mmHg 84%
    20:00 +19°C° 0.1 mm 2 mps 737 mmHg 87%
    21:00 +18°C° 0 mm 2 mps 738 mmHg 88%
    22:00 +18°C° 0 mm 2 mps 738 mmHg 90%
    23:00 +17°C° 0 mm 2 mps 738 mmHg 91%

    25 July, Thursday

    Time Temperature Precipitation Wind Pressure Humidity
    00:00 +17°C° 0 mm 2 mps 738 mmHg 92%
    01:00 +16°C° 0 mm 2 mps 739 mmHg 92%
    02:00 +16°C° 0 mm 2 mps 739 mmHg 93%
    03:00 +16°C° 0 mm 2 mps 739 mmHg 93%
    04:00 +15°C° 0 mm 2 mps 739 mmHg 94%
    05:00 +15°C° 0 mm 2 mps 739 mmHg 95%
    06:00 +17°C° 0 mm 2 mps 739 mmHg 91%
    07:00 +18°C° 0 mm 2 mps 739 mmHg 87%
    08:00 +20°C° 0 mm 2 mps 740 mmHg 83%
    09:00 +21°C° 0 mm 3 mps 740 mmHg 77%
    10:00 +22°C° 0 mm 3 mps 740 mmHg 71%
    11:00 +25°C° 0 mm 3 mps 740 mmHg 65%
    12:00 +25°C° 0 mm 3 mps 740 mmHg 63%
    13:00 +26°C° 0 mm 4 mps 740 mmHg 61%
    14:00 +26°C° 0 mm 4 mps 740 mmHg 59%
    15:00 +26°C° 0 mm 4 mps 740 mmHg 60%
    16:00 +26°C° 0 mm 4 mps 740 mmHg 60%
    17:00 +26°C° 0 mm 4 mps 739 mmHg 61%
    18:00 +24°C° 0 mm 3 mps 740 mmHg 68%
    19:00 +23°C° 0 mm 2 mps 740 mmHg 74%
    20:00 +21°C° 0 mm 1 mps 740 mmHg 81%
    21:00 +20°C° 0 mm 1 mps 740 mmHg 83%
    22:00 +19°C° 0 mm 1 mps 740 mmHg 85%
    23:00 +18°C° 0 mm 1 mps 740 mmHg 87%
    Show more